Date String (YYYY-MM-DD hh:mm:ss) UTC,Instrument flags,Ambient pressure (hPa),Sample flow (lpm),Bypass flow (lpm),Sample temperature (°C),Ambient temperature (°C),ASC tube jacket temperature (°C),LED temperature (°C),Box temperature (°C),Sample RH (%),Span deviation,Mass concentration (μg/m³),Mass concentration (μg/m³),Mass concentration (μg/m³)
DateTimeUTC,F1_M11,P_M11,Q1_M11,Q2_M11,T1_M11,T2_M11,T3_M11,T4_M11,T5_M11,U1_M11,ZSPAN_M11,X2_M11,X0_M11,X1_M11
2021-11-08 03:00:00,,0825.2,4.99,0.00,29.7,28.8,00.0,38.8,31.4,07.1,0000.0,0001.31,0002.87,0000.99
2021-11-08 03:01:00,,0825.1,5.00,0.00,29.7,28.8,00.0,38.8,31.4,07.1,0000.0,0001.34,0002.82,0001.01
2021-11-08 03:02:00,,0825.0,5.00,0.00,29.7,28.8,00.0,38.8,31.4,07.1,0000.0,0001.39,0002.91,0001.05
2021-11-08 03:03:00,,0825.0,4.99,0.00,29.7,28.9,00.0,38.8,31.4,07.1,0000.0,0001.45,0002.99,0001.08
2021-11-08 03:04:00,,0824.9,5.00,0.00,29.7,28.9,00.0,38.8,31.4,07.0,0000.0,0001.49,0003.06,0001.11
2021-11-08 03:05:00,,0824.9,5.01,0.00,29.7,28.9,00.0,38.8,31.4,07.0,0000.0,0001.51,0002.98,0001.13
2021-11-08 03:06:00,,0824.9,5.00,0.00,29.7,28.9,00.0,38.8,31.4,07.0,0000.0,0001.51,0002.98,0001.14
2021-11-08 03:07:00,,0824.9,5.00,0.00,29.7,29.0,00.0,38.8,31.4,07.0,0000.0,0001.54,0003.10,0001.17
2021-11-08 03:08:00,,0824.9,5.00,0.00,29.8,29.0,00.0,38.8,31.4,06.9,0000.0,0001.55,0004.11,0001.19
2021-11-08 03:09:00,,0824.9,5.00,0.00,29.8,29.0,00.0,38.8,31.5,06.9,0000.0,0001.58,0003.72,0001.20
2021-11-08 03:10:00,,0824.9,5.00,0.00,29.8,29.1,00.0,38.8,31.5,06.9,0000.0,0001.57,0003.66,0001.21
2021-11-08 03:11:00,,0824.9,5.00,0.00,29.8,29.1,00.0,38.8,31.6,06.9,0000.0,0001.54,0003.52,0001.20
2021-11-08 03:12:00,,0825.0,5.00,0.00,29.8,29.1,00.0,38.8,31.6,06.9,0000.0,0001.54,0003.79,0001.18
2021-11-08 03:13:00,,0824.9,4.99,0.00,29.8,29.1,00.0,38.8,31.6,06.9,0000.0,0001.53,0004.17,0001.16
2021-11-08 03:14:00,,0824.9,5.01,0.00,29.9,29.1,00.0,38.8,31.6,06.9,0000.0,0001.51,0005.73,0001.14
2021-11-08 03:15:00,,0824.9,5.00,0.00,29.9,29.2,00.0,38.9,31.6,06.9,0000.0,0001.52,0006.79,0001.14
2021-11-08 03:16:00,,0824.9,4.99,0.00,29.9,29.2,00.0,38.9,31.6,06.8,0000.0,0001.51,0007.81,0001.12
2021-11-08 03:17:00,,0824.9,5.01,0.00,29.9,29.2,00.0,38.9,31.6,06.8,0000.0,0001.49,0008.02,0001.11
2021-11-08 03:18:00,,0824.9,5.00,0.00,29.9,29.2,00.0,38.9,31.6,06.8,0000.0,0001.44,0007.92,0001.09
2021-11-08 03:19:00,,0824.9,5.00,0.00,29.9,29.2,00.0,38.9,31.6,06.8,0000.0,0001.43,0007.77,0001.07
2021-11-08 03:20:00,,0824.9,5.00,0.00,30.0,29.1,00.0,38.9,31.7,06.8,0000.0,0001.44,0008.00,0001.06
2021-11-08 03:21:00,,0824.9,5.00,0.00,30.0,29.1,00.0,38.9,31.6,06.8,0000.0,0001.45,0008.60,0001.05
2021-11-08 03:22:00,,0824.9,5.00,0.00,30.0,29.1,00.0,38.9,31.6,06.8,0000.0,0001.43,0008.58,0001.03
2021-11-08 03:23:00,,0824.9,5.01,0.00,30.0,29.1,00.0,38.9,31.6,06.7,0000.0,0001.41,0008.43,0001.02
2021-11-08 03:24:00,,0824.9,5.00,0.00,30.0,29.1,00.0,38.9,31.7,06.7,0000.0,0001.38,0008.17,0001.01
2021-11-08 03:25:00,,0824.9,5.01,0.00,30.0,29.1,00.0,39.0,31.7,06.8,0000.0,0001.31,0007.15,0001.00
2021-11-08 03:26:00,,0824.9,4.99,0.00,30.0,29.1,00.0,39.0,31.6,06.9,0000.0,0001.27,0006.12,0000.98
2021-11-08 03:27:00,,0824.9,5.00,0.00,30.0,29.1,00.0,39.0,31.6,06.7,0000.0,0001.25,0004.68,0000.97
2021-11-08 03:28:00,,0824.9,4.99,0.00,30.0,29.1,00.0,39.0,31.6,06.6,0000.0,0001.26,0004.31,0000.96
2021-11-08 03:29:00,,0824.9,5.02,0.00,30.0,29.1,00.0,39.0,31.6,06.5,0000.0,0001.25,0004.32,0000.95
2021-11-08 03:30:00,,0824.9,4.99,0.00,30.0,29.1,00.0,39.0,31.6,06.6,0000.0,0001.22,0003.37,0000.92
2021-11-08 03:31:00,,0824.8,5.00,0.00,30.0,29.1,00.0,39.0,31.6,06.6,0000.0,0001.17,0003.11,0000.91
2021-11-08 03:32:00,,0824.9,5.01,0.00,30.0,29.1,00.0,39.0,31.6,06.4,0000.0,0001.16,0001.90,0000.90
2021-11-08 03:33:00,,0824.9,5.00,0.00,30.0,29.1,00.0,39.0,31.7,06.5,0000.0,0001.17,0001.97,0000.90
2021-11-08 03:34:00,,0824.9,5.01,0.00,30.0,29.1,00.0,39.0,31.6,06.6,0000.0,0001.20,0002.30,0000.90
2021-11-08 03:35:00,,0824.9,5.00,0.00,30.0,29.1,00.0,39.0,31.6,06.6,0000.0,0001.19,0002.28,0000.91
2021-11-08 03:36:00,,0824.9,5.01,0.00,30.0,29.0,00.0,39.0,31.7,06.5,0000.0,0001.20,0002.32,0000.90
2021-11-08 03:37:00,,0824.9,5.00,0.00,30.0,29.0,00.0,39.0,31.7,06.5,0000.0,0001.21,0002.28,0000.90
2021-11-08 03:38:00,,0824.9,4.99,0.00,30.0,29.1,00.0,39.0,31.7,06.4,0000.0,0001.22,0002.33,0000.90
2021-11-08 03:39:00,,0824.9,5.01,0.00,30.0,29.0,00.0,39.0,31.6,06.5,0000.0,0001.24,0002.43,0000.90
2021-11-08 03:40:00,,0824.9,5.00,0.00,30.0,29.0,00.0,39.0,31.7,06.6,0000.0,0001.24,0002.44,0000.90
2021-11-08 03:41:00,,0824.9,5.00,0.00,30.0,29.0,00.0,39.1,31.7,06.4,0000.0,0001.24,0002.49,0000.91
2021-11-08 03:42:00,,0824.9,4.99,0.00,30.0,29.0,00.0,39.1,31.7,06.5,0000.0,0001.29,0004.07,0000.92
2021-11-08 03:43:00,,0824.9,5.00,0.00,30.0,29.0,00.0,39.1,31.7,06.4,0000.0,0001.31,0005.32,0000.92
2021-11-08 03:44:00,,0824.8,5.01,0.00,30.0,29.0,00.0,39.1,31.7,06.5,0000.0,0001.31,0005.30,0000.93
2021-11-08 03:45:00,,0824.8,5.01,0.00,30.0,29.1,00.0,39.1,31.7,06.5,0000.0,0001.32,0005.35,0000.92
2021-11-08 03:46:00,,0824.8,5.01,0.00,30.0,29.1,00.0,39.1,31.7,06.5,0000.0,0001.34,0005.83,0000.91
2021-11-08 03:47:00,,0824.8,5.00,0.00,30.0,29.1,00.0,39.1,31.7,06.4,0000.0,0001.35,0007.01,0000.91
2021-11-08 03:48:00,,0824.8,5.00,0.00,30.0,29.1,00.0,39.1,31.6,06.4,0000.0,0001.35,0007.16,0000.90
2021-11-08 03:49:00,,0824.8,4.99,0.00,30.0,29.1,00.0,39.1,31.6,06.4,0000.0,0001.36,0007.27,0000.90
2021-11-08 03:50:00,,0824.7,5.00,0.00,30.0,29.0,00.0,39.1,31.6,06.4,0000.0,0001.33,0007.16,0000.90
2021-11-08 03:51:00,,0824.8,5.00,0.00,30.0,29.0,00.0,39.1,31.6,06.4,0000.0,0001.34,0007.16,0000.90
2021-11-08 03:52:00,,0824.7,5.00,0.00,30.0,29.0,00.0,39.1,31.6,06.5,0000.0,0001.32,0007.10,0000.90
2021-11-08 03:53:00,,0824.8,5.01,0.00,30.0,29.1,00.0,39.1,31.6,06.5,0000.0,0001.27,0005.72,0000.90
2021-11-08 03:54:00,,0824.8,5.00,0.00,30.0,29.0,00.0,39.1,31.6,06.4,0000.0,0001.24,0004.10,0000.90
2021-11-08 03:55:00,,0824.8,5.00,0.00,30.0,29.0,00.0,39.1,31.6,06.4,0000.0,0001.22,0004.02,0000.90
2021-11-08 03:56:00,,0824.7,5.01,0.00,30.0,29.0,00.0,39.1,31.6,06.4,0000.0,0001.17,0003.68,0000.90
2021-11-08 03:57:00,,0824.7,5.00,0.00,30.0,29.0,00.0,39.1,31.6,06.4,0000.0,0001.16,0003.21,0000.90
2021-11-08 03:58:00,,0824.7,4.99,0.00,30.0,29.0,00.0,39.1,31.6,06.4,0000.0,0001.17,0002.21,0000.90
2021-11-08 03:59:00,,0824.8,5.00,0.00,30.0,29.0,00.0,39.1,31.5,06.4,0000.0,0001.20,0002.03,0000.91
